SCP
0 -0 -0 -0 -0 -0 -0 -0 -0 0 0 0 0 0 0 -0 -0 -0 -0 0 0 -0 0 0 0 0 0 0 0 0 0 0 0 -0 -0 -0 -0 -0 -0 -0 -0 0 0
-0 -0 -0 -0 -0 -0 -0 -0 -0 -0 0 0 0 0 0 0 -0 -0 0 0 0 0 -0 0 0 0 0 0 0 0 0 0 0 0 0 0 -0 -0 -0 -0 -0 -0 -0
-0 -0 -0 -0 -0 -0 -0 -0 -0 -0 -0 -0 -0 0 0 0 0 0 0 0 0 0 0 0 0 0 0 0 0 0 0 0 0 0 0 0 0 -0 0 0 0 0 0
-0 -0 -0 -0 -0 -1 -1 -1 -0 -0 -0 -0 -0 -0 -0 0 0 0 0 0 0 0 0 0 0 0 0 0 0 0 0 0 0 0 -0 0 0 0 0 0 0 0 0
0 -0 -0 -0 -0 -0 -1 -1 -0 -0 -0 -0 -0 -0 -0 -0 0 0 0 0 0 0 0 0 0 0 0 0 0 0 0 0 0 0 0 0 0 0 0 0 0 0 0
0 -0 -0 -0 -0 -0 -0 -0 -0 -0 -0 -0 -0 -0 -0 -0 -0 0 0 0 0 0 0 0 0 0 0 0 0 0 0 0 0 0 0 0 0 0 0 0 0 0 0
0 0 -0 -0 -0 -1 -0 -0 0 0 -0 -0 -0 -0 -0 -0 -0 0 0 0 0 0 0 0 0 0 0 0 0 0 0 0 0 0 0 0 0 0 0 0 0 0 0
0 0 -0 -0 -0 -0 -0 -0 -0 0 0 0 0 -0 -0 -0 0 0 0 0 0 0 0 0 0 0 0 0 0 0 0 0 0 0 0 0 0 0 0 0 0 0 0
0 0 0 0 0 0 0 -0 -0 -0 0 0 0 0 0 0 0 0 0 0 0 0 0 0 0 0 0 0 0 0 0 0 0 0 0 0 0 0 0 0 0 0 0
0 0 0 0 0 0 0 0 -0 0 0 0 0 0 0 0 0 0 0 0 0 0 0 0 0 0 0 0 0 0 0 0 0 0 0 0 0 0 0 0 0 0 0
0 0 0 0 0 0 0 0 0 0 0 0 0 0 0 0 0 0 0 0 0 0 0 0 0 0 0 0 0 0 0 0 0 0 0 0 0 0 0 0 0 0 0
0 0 0 0 0 0 0 0 0 0 0 0 0 0 0 0 0 0 0 0 0 0 0 0 0 0 0 0 0 0 0 0 0 0 0 0 0 0 0 0 0 0 0
0 0 0 0 0 0 0 0 0 0 0 0 0 0 0 0 0 0 0 0 0 0 0 0 0 0 0 0 0 0 0 0 0 0 0 0 0 0 0 0 0 0 0
0 0 0 0 0 0 0 0 0 0 0 0 0 0 0 0 0 0 0 0 0 0 0 0 0 0 0 0 0 0 0 0 0 0 0 0 0 0 0 0 0 0 0
0 0 0 0 0 0 0 0 0 0 0 0 0 0 0 0 0 0 0 0 0 0 0 0 0 0 0 0 0 0 0 0 0 0 0 0 0 0 0 0 0 0 0
0 0 0 0 0 0 0 0 0 0 0 0 0 0 0 0 0 0 0 0 0 0 0 0 0 0 0 0 0 0 0 0 0 0 0 0 0 0 0 0 0 0 0
0 0 0 0 0 0 0 0 0 0 0 0 0 0 0 0 0 0 0 0 0 0 0 0 0 0 0 0 0 0 0 0 0 0 0 0 0 0 0 0 0 0 0
0 0 0 0 0 0 0 0 0 0 0 0 0 0 0 0 0 0 0 0 0 0 0 0 0 0 0 0 0 0 0 0 0 0 0 0 0 0 0 0 0 0 0
0 0 0 0 0 0 0 0 0 0 0 0 0 0 0 0 0 0 0 0 0 0 0 0 0 0 0 0 0 0 0 0 0 0 0 0 0 0 0 0 0 0 0
0 0 0 0 0 0 0 0 0 0 0 0 0 0 0 0 0 0 0 0 0 0 0 0 0 0 0 0 0 0 0 0 0 0 0 0 0 0 0 0 0 0 0
0 0 0 0 0 0 0 0 0 0 0 0 0 0 0 0 0 0 0 0 0 0 0 0 0 0 0 0 0 0 0 0 0 0 0 0 0 0 0 0 0 0 0
0 0 0 0 0 0 0 0 0 0 0 0 0 0 0 0 0 0 0 0 0 0 0 0 0 0 0 0 0 0 0 0 0 0 0 0 0 0 0 0 0 0 0
0 0 0 0 0 0 0 0 0 0 0 0 0 0 0 0 0 0 0 0 0 0 0 0 0 0 0 0 0 0 0 0 0 0 0 0 0 0 0 0 0 0 0
0 0 0 0 0 0 0 0 0 0 0 0 0 0 0 0 0 0 0 0 0 0 0 0 0 0 0 0 0 0 0 0 0 0 0 0 0 0 0 0 0 0 0
0 0 0 0 0 0 0 0 0 0 0 0 0 0 0 0 0 0 0 0 0 0 0 0 0 0 0 0 0 0 0 0 0 0 0 0 0 0 0 0 0 0 0
0 0 0 0 0 0 0 0 0 0 0 0 0 0 0 0 0 0 0 0 0 0 0 0 0 0 0 0 0 0 0 0 0 0 0 0 0 0 0 0 0 0 0
Wind_Speed_500mb
23 32 38 39 39 38 36 34 32 30 28 24 18 15 15 14 14 14 17 14 7 1 3 6 5 4 6 6 6 7 10 12 17 14 15 14 13 15 20 22 20 20 15
19 30 40 40 38 37 35 33 31 28 25 20 17 14 15 13 13 14 12 10 7 5 5 2 5 5 5 6 6 7 9 12 14 12 13 10 9 10 10 14 16 17 17
17 26 40 42 40 38 36 32 30 27 24 22 20 17 16 15 14 14 14 13 13 9 6 2 3 3 4 4 5 7 10 12 16 16 10 9 8 3 3 4 8 11 13
10 22 39 41 40 39 37 34 31 28 25 23 21 21 24 19 16 16 16 17 14 10 6 5 2 2 2 3 5 7 11 14 13 9 10 6 2 2 4 4 5 5 4
11 16 33 41 42 40 37 35 33 30 28 26 23 24 14 14 18 19 20 21 19 13 9 8 6 6 6 7 9 10 13 17 14 10 10 8 1 2 0 5 7 6 3
13 16 28 40 42 42 41 38 36 33 30 25 29 30 24 21 22 24 25 25 25 19 13 13 11 10 8 10 13 15 18 20 19 16 14 10 9 6 1 2 10 7 4
15 19 25 35 43 44 42 40 38 36 34 33 33 30 29 27 27 27 30 31 28 22 17 15 13 11 11 12 13 15 20 24 23 22 22 21 17 17 16 12 5 6 6
13 18 24 29 39 44 45 44 41 39 39 36 31 29 28 30 29 26 25 27 27 19 18 16 14 14 10 10 10 13 17 21 20 21 21 21 20 25 22 17 17 11 10
15 19 23 29 33 42 45 45 45 44 42 37 34 33 33 33 32 24 18 26 25 22 21 16 15 15 14 14 13 13 14 17 15 18 19 21 23 24 23 20 19 16 15
20 22 25 29 34 38 44 48 48 47 46 44 41 38 36 38 34 27 16 25 26 24 22 17 16 16 17 16 14 13 15 16 16 16 17 18 20 21 21 20 19 18 19
25 28 30 33 35 39 42 45 49 50 48 46 44 44 43 44 40 31 26 23 27 26 24 20 19 19 19 18 16 16 17 17 16 16 17 18 19 19 20 20 20 21 22
38 34 34 38 38 39 44 46 51 51 51 51 47 47 49 47 46 38 35 30 29 30 28 24 23 24 23 21 19 19 19 19 18 18 18 19 19 19 19 19 20 21 22
44 36 37 36 39 42 43 47 52 55 54 52 49 51 50 50 51 48 43 39 35 33 32 30 27 28 26 25 22 22 22 21 19 19 19 20 20 20 20 21 22 23 24
40 39 36 33 35 35 40 44 48 55 56 56 56 54 52 53 53 52 49 45 41 37 34 35 31 33 31 30 27 27 25 25 23 23 22 22 23 23 23 23 25 26 25
37 41 38 35 33 35 36 38 44 49 51 54 56 58 56 59 55 51 52 51 46 43 39 38 36 38 37 35 34 33 32 30 28 27 26 25 25 25 25 25 27 26 25
37 40 37 41 33 33 37 36 36 41 43 43 44 46 50 54 55 55 53 50 46 46 44 43 41 42 42 42 42 40 39 37 34 32 31 29 28 27 26 26 28 28 26
33 37 36 33 30 29 35 35 34 35 39 43 41 40 43 48 50 56 59 56 43 44 48 48 48 47 49 49 48 47 46 43 41 38 35 33 32 30 29 29 30 31 28
14 28 33 30 24 22 27 31 33 33 38 41 41 39 41 50 53 55 57 57 49 49 50 51 51 49 48 51 51 51 50 48 46 43 42 40 37 35 33 32 31 33 32
9 5 16 24 23 19 23 34 34 32 31 36 35 38 39 40 40 45 47 50 51 51 50 51 52 51 50 51 52 54 56 55 52 51 49 48 44 42 38 36 34 35 36
1 3 12 20 20 18 22 27 28 28 28 28 27 28 31 34 37 40 41 42 44 46 48 51 52 54 55 53 54 58 61 61 60 60 57 54 53 50 46 42 39 38 41
9 11 13 11 12 11 16 19 19 20 21 19 22 24 26 29 32 36 37 39 43 46 47 48 51 54 56 55 56 62 66 66 67 67 64 60 61 57 53 48 45 43 46
42 33 20 12 5 3 5 8 11 17 19 20 19 19 22 25 28 33 35 38 41 43 45 48 51 55 55 56 57 60 59 59 70 73 73 70 67 65 62 57 53 51 50
55 50 44 36 27 19 10 5 5 9 10 12 15 17 17 18 21 22 25 31 39 42 44 45 49 53 54 55 57 52 19 25 36 45 51 65 74 73 69 64 61 59 57
55 51 50 45 41 35 27 20 14 7 4 7 4 4 13 19 18 18 19 22 30 37 40 42 43 49 53 55 56 61 67 71 55 39 44 32 44 61 70 71 69 67 65
41 43 42 40 39 39 36 34 28 23 21 16 10 8 9 13 19 22 25 29 32 35 34 36 39 44 50 56 58 58 64 68 76 83 81 68 64 58 57 62 69 71 71
35 35 33 31 32 32 33 32 29 27 26 21 22 21 19 17 16 16 18 21 24 29 34 36 40 43 48 53 55 58 64 69 63 64 72 81 84 83 82 76 72 71 70
Wind_Direction_500mb
173 176 188 186 187 191 191 189 185 182 180 182 183 176 171 166 156 152 156 165 154 119 357 358 29 72 104 123 130 120 110 117 118 112 103 93 86 85 90 98 88 84 82
172 175 187 192 193 195 198 196 189 190 193 194 195 188 184 180 165 172 185 202 225 254 288 357 50 75 99 110 122 132 126 131 132 137 106 101 100 90 97 109 124 113 107
168 180 187 194 198 200 203 204 202 201 202 201 201 206 206 202 203 206 214 229 239 253 242 237 32 75 100 104 122 139 138 149 148 134 115 80 99 70 135 135 126 142 143
164 189 190 197 202 204 207 208 208 211 211 211 210 218 221 214 220 228 238 252 261 250 224 227 268 255 242 217 189 174 169 181 181 166 146 175 98 326 202 186 161 171 172
199 188 199 202 205 209 213 215 216 217 216 216 219 211 215 210 214 231 248 259 265 268 252 252 261 264 257 240 226 200 196 207 208 190 159 191 96 331 271 202 180 171 189
225 209 200 206 210 211 214 218 221 222 220 213 210 226 234 236 235 240 245 250 262 266 252 256 262 264 261 250 234 212 206 214 218 212 218 203 217 268 338 215 202 179 189
233 223 211 210 212 216 219 220 220 223 223 212 213 219 230 241 247 251 249 248 253 259 259 265 271 269 259 241 227 218 216 219 217 219 222 228 232 246 257 293 257 207 209
252 237 227 219 219 220 221 222 223 223 223 227 219 219 230 246 253 261 250 236 246 248 256 267 269 264 244 224 214 210 216 228 224 230 231 236 241 253 270 285 274 247 234
257 246 238 231 226 225 227 226 226 227 229 229 229 232 248 251 256 255 247 233 243 249 255 253 244 235 218 217 215 218 222 232 232 237 245 244 249 259 264 269 261 263 260
275 261 249 241 235 232 227 228 230 230 231 232 233 237 242 253 258 264 277 260 252 256 259 251 243 224 221 223 224 228 235 242 244 246 245 247 251 257 263 263 262 263 262
276 278 263 249 243 239 236 233 230 230 232 234 234 234 238 244 252 259 268 275 266 263 262 254 243 229 229 231 233 238 241 248 253 254 251 253 258 260 261 265 266 263 263
280 287 283 261 251 245 241 238 235 232 232 232 231 232 237 240 252 258 262 266 269 266 260 250 239 233 235 239 241 245 248 253 255 256 255 256 258 258 261 261 262 262 263
287 272 278 273 260 253 247 242 238 233 233 236 232 233 239 241 249 254 257 263 270 266 261 255 242 238 240 243 245 249 252 256 256 260 262 266 267 266 267 270 269 270 268
285 283 274 271 260 255 255 249 242 237 236 239 241 240 238 238 244 250 256 262 266 270 264 257 247 241 243 247 249 250 253 258 261 263 265 265 266 267 266 265 267 270 268
268 270 272 263 269 260 257 259 250 241 239 241 241 242 242 247 244 250 257 259 262 266 265 261 253 247 246 247 248 251 253 254 254 255 258 258 262 266 270 269 270 271 271
275 272 267 252 267 267 259 262 265 255 248 245 245 247 245 244 246 248 257 265 263 264 265 261 257 249 248 248 248 249 251 253 254 256 259 260 262 264 264 265 270 273 275
275 268 256 244 255 270 260 261 266 269 258 254 254 256 251 255 248 253 256 260 270 270 267 260 256 251 246 246 247 248 248 249 252 254 256 259 261 263 265 264 263 264 264
282 262 248 230 230 257 255 252 260 265 264 258 254 256 253 258 257 250 259 258 281 275 268 260 258 256 253 251 251 252 252 252 253 255 257 260 260 262 264 266 264 264 265
357 294 218 209 209 209 228 240 245 253 259 259 255 258 255 254 258 252 259 264 272 275 270 267 264 262 260 258 258 255 253 253 253 254 256 259 261 261 262 262 263 264 266
203 188 195 201 210 200 210 227 240 247 246 243 252 259 265 264 264 262 264 269 267 270 271 270 269 267 267 267 264 259 255 254 253 254 254 255 258 258 259 259 260 259 260
109 122 118 150 158 177 194 213 227 242 243 242 241 249 259 265 269 271 272 270 267 272 274 277 275 271 268 268 268 265 262 259 257 256 256 256 257 259 259 258 258 256 253
70 73 77 85 105 180 216 220 220 225 226 230 238 243 255 261 268 273 275 275 273 273 275 275 275 273 271 268 265 268 271 271 265 262 260 259 258 258 258 257 257 256 253
66 64 65 67 72 79 86 108 174 203 209 217 226 239 249 254 255 265 269 273 273 273 273 276 277 278 278 274 270 258 266 251 270 266 263 259 257 256 259 257 256 256 256
55 52 52 54 56 57 55 62 77 91 58 44 14 268 265 276 279 273 257 263 274 275 274 274 274 273 275 274 274 268 261 259 273 286 274 281 274 262 261 260 259 258 257
57 49 44 41 43 44 46 50 53 58 54 41 16 320 304 295 290 290 285 279 273 270 275 277 272 268 269 272 272 272 271 271 268 268 279 279 274 276 276 271 266 262 261
56 49 45 39 39 37 33 33 31 32 37 36 40 28 17 2 345 329 315 304 298 292 289 282 270 268 268 267 269 269 267 266 266 269 274 279 282 278 274 272 271 268 265
Wind_Speed_850mb
23 32 38 39 39 38 36 34 32 30 28 24 18 15 15 14 14 14 17 14 7 1 3 6 5 4 6 6 6 7 10 12 17 14 15 14 13 15 20 22 20 20 15
19 30 40 40 38 37 35 33 31 28 25 20 17 14 15 13 13 14 12 10 7 5 5 2 5 5 5 6 6 7 9 12 14 12 13 10 9 10 10 14 16 17 17
17 26 40 42 40 38 36 32 30 27 24 22 20 17 16 15 14 14 14 13 13 9 6 2 3 3 4 4 5 7 10 12 16 16 10 9 8 3 3 4 8 11 13
10 22 39 41 40 39 37 34 31 28 25 23 21 21 24 19 16 16 16 17 14 10 6 5 2 2 2 3 5 7 11 14 13 9 10 6 2 2 4 4 5 5 4
11 16 33 41 42 40 37 35 33 30 28 26 23 24 14 14 18 19 20 21 19 13 9 8 6 6 6 7 9 10 13 17 14 10 10 8 1 2 0 5 7 6 3
13 16 28 40 42 42 41 38 36 33 30 25 29 30 24 21 22 24 25 25 25 19 13 13 11 10 8 10 13 15 18 20 19 16 14 10 9 6 1 2 10 7 4
15 19 25 35 43 44 42 40 38 36 34 33 33 30 29 27 27 27 30 31 28 22 17 15 13 11 11 12 13 15 20 24 23 22 22 21 17 17 16 12 5 6 6
13 18 24 29 39 44 45 44 41 39 39 36 31 29 28 30 29 26 25 27 27 19 18 16 14 14 10 10 10 13 17 21 20 21 21 21 20 25 22 17 17 11 10
15 19 23 29 33 42 45 45 45 44 42 37 34 33 33 33 32 24 18 26 25 22 21 16 15 15 14 14 13 13 14 17 15 18 19 21 23 24 23 20 19 16 15
20 22 25 29 34 38 44 48 48 47 46 44 41 38 36 38 34 27 16 25 26 24 22 17 16 16 17 16 14 13 15 16 16 16 17 18 20 21 21 20 19 18 19
25 28 30 33 35 39 42 45 49 50 48 46 44 44 43 44 40 31 26 23 27 26 24 20 19 19 19 18 16 16 17 17 16 16 17 18 19 19 20 20 20 21 22
38 34 34 38 38 39 44 46 51 51 51 51 47 47 49 47 46 38 35 30 29 30 28 24 23 24 23 21 19 19 19 19 18 18 18 19 19 19 19 19 20 21 22
44 36 37 36 39 42 43 47 52 55 54 52 49 51 50 50 51 48 43 39 35 33 32 30 27 28 26 25 22 22 22 21 19 19 19 20 20 20 20 21 22 23 24
40 39 36 33 35 35 40 44 48 55 56 56 56 54 52 53 53 52 49 45 41 37 34 35 31 33 31 30 27 27 25 25 23 23 22 22 23 23 23 23 25 26 25
37 41 38 35 33 35 36 38 44 49 51 54 56 58 56 59 55 51 52 51 46 43 39 38 36 38 37 35 34 33 32 30 28 27 26 25 25 25 25 25 27 26 25
37 40 37 41 33 33 37 36 36 41 43 43 44 46 50 54 55 55 53 50 46 46 44 43 41 42 42 42 42 40 39 37 34 32 31 29 28 27 26 26 28 28 26
33 37 36 33 30 29 35 35 34 35 39 43 41 40 43 48 50 56 59 56 43 44 48 48 48 47 49 49 48 47 46 43 41 38 35 33 32 30 29 29 30 31 28
14 28 33 30 24 22 27 31 33 33 38 41 41 39 41 50 53 55 57 57 49 49 50 51 51 49 48 51 51 51 50 48 46 43 42 40 37 35 33 32 31 33 32
9 5 16 24 23 19 23 34 34 32 31 36 35 38 39 40 40 45 47 50 51 51 50 51 52 51 50 51 52 54 56 55 52 51 49 48 44 42 38 36 34 35 36
1 3 12 20 20 18 22 27 28 28 28 28 27 28 31 34 37 40 41 42 44 46 48 51 52 54 55 53 54 58 61 61 60 60 57 54 53 50 46 42 39 38 41
9 11 13 11 12 11 16 19 19 20 21 19 22 24 26 29 32 36 37 39 43 46 47 48 51 54 56 55 56 62 66 66 67 67 64 60 61 57 53 48 45 43 46
42 33 20 12 5 3 5 8 11 17 19 20 19 19 22 25 28 33 35 38 41 43 45 48 51 55 55 56 57 60 59 59 70 73 73 70 67 65 62 57 53 51 50
55 50 44 36 27 19 10 5 5 9 10 12 15 17 17 18 21 22 25 31 39 42 44 45 49 53 54 55 57 52 19 25 36 45 51 65 74 73 69 64 61 59 57
55 51 50 45 41 35 27 20 14 7 4 7 4 4 13 19 18 18 19 22 30 37 40 42 43 49 53 55 56 61 67 71 55 39 44 32 44 61 70 71 69 67 65
41 43 42 40 39 39 36 34 28 23 21 16 10 8 9 13 19 22 25 29 32 35 34 36 39 44 50 56 58 58 64 68 76 83 81 68 64 58 57 62 69 71 71
35 35 33 31 32 32 33 32 29 27 26 21 22 21 19 17 16 16 18 21 24 29 34 36 40 43 48 53 55 58 64 69 63 64 72 81 84 83 82 76 72 71 70
Wind_Direction_850mb
173 176 188 186 187 191 191 189 185 182 180 182 183 176 171 166 156 152 156 165 154 119 357 358 29 72 104 123 130 120 110 117 118 112 103 93 86 85 90 98 88 84 82
172 175 187 192 193 195 198 196 189 190 193 194 195 188 184 180 165 172 185 202 225 254 288 357 50 75 99 110 122 132 126 131 132 137 106 101 100 90 97 109 124 113 107
168 180 187 194 198 200 203 204 202 201 202 201 201 206 206 202 203 206 214 229 239 253 242 237 32 75 100 104 122 139 138 149 148 134 115 80 99 70 135 135 126 142 143
164 189 190 197 202 204 207 208 208 211 211 211 210 218 221 214 220 228 238 252 261 250 224 227 268 255 242 217 189 174 169 181 181 166 146 175 98 326 202 186 161 171 172
199 188 199 202 205 209 213 215 216 217 216 216 219 211 215 210 214 231 248 259 265 268 252 252 261 264 257 240 226 200 196 207 208 190 159 191 96 331 271 202 180 171 189
225 209 200 206 210 211 214 218 221 222 220 213 210 226 234 236 235 240 245 250 262 266 252 256 262 264 261 250 234 212 206 214 218 212 218 203 217 268 338 215 202 179 189
233 223 211 210 212 216 219 220 220 223 223 212 213 219 230 241 247 251 249 248 253 259 259 265 271 269 259 241 227 218 216 219 217 219 222 228 232 246 257 293 257 207 209
252 237 227 219 219 220 221 222 223 223 223 227 219 219 230 246 253 261 250 236 246 248 256 267 269 264 244 224 214 210 216 228 224 230 231 236 241 253 270 285 274 247 234
257 246 238 231 226 225 227 226 226 227 229 229 229 232 248 251 256 255 247 233 243 249 255 253 244 235 218 217 215 218 222 232 232 237 245 244 249 259 264 269 261 263 260
275 261 249 241 235 232 227 228 230 230 231 232 233 237 242 253 258 264 277 260 252 256 259 251 243 224 221 223 224 228 235 242 244 246 245 247 251 257 263 263 262 263 262
276 278 263 249 243 239 236 233 230 230 232 234 234 234 238 244 252 259 268 275 266 263 262 254 243 229 229 231 233 238 241 248 253 254 251 253 258 260 261 265 266 263 263
280 287 283 261 251 245 241 238 235 232 232 232 231 232 237 240 252 258 262 266 269 266 260 250 239 233 235 239 241 245 248 253 255 256 255 256 258 258 261 261 262 262 263
287 272 278 273 260 253 247 242 238 233 233 236 232 233 239 241 249 254 257 263 270 266 261 255 242 238 240 243 245 249 252 256 256 260 262 266 267 266 267 270 269 270 268
285 283 274 271 260 255 255 249 242 237 236 239 241 240 238 238 244 250 256 262 266 270 264 257 247 241 243 247 249 250 253 258 261 263 265 265 266 267 266 265 267 270 268
268 270 272 263 269 260 257 259 250 241 239 241 241 242 242 247 244 250 257 259 262 266 265 261 253 247 246 247 248 251 253 254 254 255 258 258 262 266 270 269 270 271 271
275 272 267 252 267 267 259 262 265 255 248 245 245 247 245 244 246 248 257 265 263 264 265 261 257 249 248 248 248 249 251 253 254 256 259 260 262 264 264 265 270 273 275
275 268 256 244 255 270 260 261 266 269 258 254 254 256 251 255 248 253 256 260 270 270 267 260 256 251 246 246 247 248 248 249 252 254 256 259 261 263 265 264 263 264 264
282 262 248 230 230 257 255 252 260 265 264 258 254 256 253 258 257 250 259 258 281 275 268 260 258 256 253 251 251 252 252 252 253 255 257 260 260 262 264 266 264 264 265
357 294 218 209 209 209 228 240 245 253 259 259 255 258 255 254 258 252 259 264 272 275 270 267 264 262 260 258 258 255 253 253 253 254 256 259 261 261 262 262 263 264 266
203 188 195 201 210 200 210 227 240 247 246 243 252 259 265 264 264 262 264 269 267 270 271 270 269 267 267 267 264 259 255 254 253 254 254 255 258 258 259 259 260 259 260
109 122 118 150 158 177 194 213 227 242 243 242 241 249 259 265 269 271 272 270 267 272 274 277 275 271 268 268 268 265 262 259 257 256 256 256 257 259 259 258 258 256 253
70 73 77 85 105 180 216 220 220 225 226 230 238 243 255 261 268 273 275 275 273 273 275 275 275 273 271 268 265 268 271 271 265 262 260 259 258 258 258 257 257 256 253
66 64 65 67 72 79 86 108 174 203 209 217 226 239 249 254 255 265 269 273 273 273 273 276 277 278 278 274 270 258 266 251 270 266 263 259 257 256 259 257 256 256 256
55 52 52 54 56 57 55 62 77 91 58 44 14 268 265 276 279 273 257 263 274 275 274 274 274 273 275 274 274 268 261 259 273 286 274 281 274 262 261 260 259 258 257
57 49 44 41 43 44 46 50 53 58 54 41 16 320 304 295 290 290 285 279 273 270 275 277 272 268 269 272 272 272 271 271 268 268 279 279 274 276 276 271 266 262 261
56 49 45 39 39 37 33 33 31 32 37 36 40 28 17 2 345 329 315 304 298 292 289 282 270 268 268 267 269 269 267 266 266 269 274 279 282 278 274 272 271 268 265